﻿#,"Date Time, GMT-04:00","Temp, °C (LGR S/N: 20468807, SEN S/N: 20462383)","Water Content, m³/m³ (LGR S/N: 20468807, SEN S/N: 20488795)"
1,5/31/19 13:30,23.28,-0.3038
2,5/31/19 14:30,13.064,0.2254
3,5/31/19 15:30,13.882,0.2254
4,5/31/19 16:30,14.314,0.2254
5,5/31/19 17:30,14.385,0.2254
6,5/31/19 18:30,14.577,0.2249
7,5/31/19 19:30,14.505,0.2249
8,5/31/19 20:30,14.337,0.2245
9,5/31/19 21:30,14.29,0.2635
10,5/31/19 22:30,14.002,0.2729
11,5/31/19 23:30,13.858,0.2712
12,6/1/19 0:30,13.738,0.2694
13,6/1/19 1:30,13.642,0.2673
14,6/1/19 2:30,13.546,0.266
15,6/1/19 3:30,13.425,0.2646
16,6/1/19 4:30,13.305,0.2639
17,6/1/19 5:30,13.161,0.2635
18,6/1/19 6:30,13.04,0.2646
19,6/1/19 7:30,12.896,0.2632
20,6/1/19 8:30,12.847,0.2618
21,6/1/19 9:30,12.823,0.2615
22,6/1/19 10:30,12.799,0.2607
23,6/1/19 11:30,12.968,0.2596
24,6/1/19 12:30,13.137,0.2582
25,6/1/19 13:30,13.209,0.2579
26,6/1/19 14:30,13.209,0.2589
27,6/1/19 15:30,13.449,0.2582
28,6/1/19 16:30,13.714,0.2571
29,6/1/19 17:30,13.81,0.2557
30,6/1/19 18:30,13.858,0.2546
31,6/1/19 19:30,13.738,0.2542
32,6/1/19 20:30,13.449,0.2532
33,6/1/19 21:30,13.161,0.252
34,6/1/19 22:30,12.847,0.2512
35,6/1/19 23:30,12.534,0.2505
36,6/2/19 0:30,12.219,0.2502
37,6/2/19 1:30,11.856,0.2494
38,6/2/19 2:30,11.54,0.249
39,6/2/19 3:30,11.248,0.2487
40,6/2/19 4:30,11.005,0.249
41,6/2/19 5:30,10.834,0.2487
42,6/2/19 6:30,10.638,0.2479
43,6/2/19 7:30,10.541,0.2475
44,6/2/19 8:30,10.565,0.2475
45,6/2/19 9:30,10.761,0.2471
46,6/2/19 10:30,10.98,0.2468
47,6/2/19 11:30,11.224,0.2456
48,6/2/19 12:30,11.419,0.2452
49,6/2/19 13:30,11.492,0.2449
50,6/2/19 14:30,11.686,0.2441
51,6/2/19 15:30,12.098,0.2434
52,6/2/19 16:30,12.195,0.2425
53,6/2/19 17:30,12.074,0.2421
54,6/2/19 18:30,11.929,0.2414
55,6/2/19 19:30,11.613,0.2406
56,6/2/19 20:30,11.273,0.2406
57,6/2/19 21:30,10.932,0.2399
58,6/2/19 22:30,10.541,0.2394
59,6/2/19 23:30,10.198,0.2394
60,6/3/19 0:30,9.903,0.239
61,6/3/19 1:30,9.632,0.2387
62,6/3/19 2:30,9.361,0.2387
63,6/3/19 3:30,9.139,0.2383
64,6/3/19 4:30,8.916,0.2383
65,6/3/19 5:30,8.717,0.2383
66,6/3/19 6:30,8.519,0.2383
67,6/3/19 7:30,8.419,0.2379
68,6/3/19 8:30,8.469,0.2379
69,6/3/19 9:30,8.643,0.2379
70,6/3/19 10:30,8.891,0.2374
71,6/3/19 11:30,9.188,0.2374
72,6/3/19 12:30,9.509,0.2371
73,6/3/19 13:30,9.854,0.2367
74,6/3/19 14:30,10.198,0.2358
75,6/3/19 15:30,10.858,0.2355
76,6/3/19 16:30,11.151,0.2355
77,6/3/19 17:30,11.078,0.2351
78,6/3/19 18:30,10.98,0.2347
79,6/3/19 19:30,10.858,0.2344
80,6/3/19 20:30,10.736,0.2344
81,6/3/19 21:30,10.59,0.2344
82,6/3/19 22:30,10.394,0.2335
83,6/3/19 23:30,10.222,0.2335
84,6/4/19 0:30,10.075,0.2335
85,6/4/19 1:30,9.952,0.233
86,6/4/19 2:30,9.854,0.233
87,6/4/19 3:30,9.731,0.2327
88,6/4/19 4:30,9.583,0.2327
89,6/4/19 5:30,9.534,0.2323
90,6/4/19 6:30,9.485,0.2318
91,6/4/19 7:30,9.435,0.2318
92,6/4/19 8:30,9.509,0.2318
93,6/4/19 9:30,9.805,0.2315
94,6/4/19 10:30,10.271,0.2311
95,6/4/19 11:30,10.834,0.2311
96,6/4/19 12:30,11.419,0.2306
97,6/4/19 13:30,11.953,0.2306
98,6/4/19 14:30,12.413,0.2303
99,6/4/19 15:30,12.799,0.2299
100,6/4/19 16:30,13.209,0.2299
101,6/4/19 17:30,13.353,0.2294
102,6/4/19 18:30,13.522,0.2291
103,6/4/19 19:30,13.449,0.2286
104,6/4/19 20:30,13.329,0.2286
105,6/4/19 21:30,13.209,0.2286
106,6/4/19 22:30,13.088,0.2282
107,6/4/19 23:30,12.992,0.2277
108,6/5/19 0:30,12.896,0.2277
109,6/5/19 1:30,12.823,0.2274
110,6/5/19 2:30,12.727,0.2274
111,6/5/19 3:30,12.654,0.2274
112,6/5/19 4:30,12.582,0.2269
113,6/5/19 5:30,12.678,0.2355
114,6/5/19 6:30,12.63,0.239
115,6/5/19 7:30,12.582,0.2399
116,6/5/19 8:30,12.63,0.2394
117,6/5/19 9:30,12.703,0.239
118,6/5/19 10:30,12.775,0.2387
119,6/5/19 11:30,12.992,0.2387
120,6/5/19 12:30,13.137,0.2383
121,6/5/19 13:30,13.281,0.2379
122,6/5/19 14:30,13.449,0.2371
123,6/5/19 15:30,13.594,0.2371
124,6/5/19 16:30,13.762,0.2367
125,6/5/19 17:30,14.002,0.2371
126,6/5/19 18:30,14.098,0.2363
127,6/5/19 19:30,14.146,0.2355
128,6/5/19 20:30,14.098,0.2351
129,6/5/19 21:30,13.93,0.2347
130,6/5/19 22:30,13.738,0.2347
131,6/5/19 23:30,13.546,0.2344
132,6/6/19 0:30,13.377,0.2339
133,6/6/19 1:30,13.209,0.2339
134,6/6/19 2:30,13.04,0.2339
135,6/6/19 3:30,12.871,0.2339
136,6/6/19 4:30,12.703,0.2335
137,6/6/19 5:30,12.534,0.233
138,6/6/19 6:30,12.389,0.2327
139,6/6/19 7:30,12.316,0.2327
140,6/6/19 8:30,12.316,0.2327
141,6/6/19 9:30,12.485,0.2323
142,6/6/19 10:30,12.727,0.2323
143,6/6/19 11:30,13.064,0.2318
144,6/6/19 12:30,13.401,0.2318
145,6/6/19 13:30,13.738,0.2315
146,6/6/19 14:30,14.17,0.2311
147,6/6/19 15:30,14.529,0.2303
148,6/6/19 16:30,14.96,0.2299
149,6/6/19 17:30,15.127,0.2294
150,6/6/19 18:30,15.27,0.2291
151,6/6/19 19:30,15.151,0.2291
152,6/6/19 20:30,14.984,0.2282
153,6/6/19 21:30,14.745,0.2282
154,6/6/19 22:30,14.457,0.2282
155,6/6/19 23:30,14.218,0.2277
156,6/7/19 0:30,14.002,0.2274
157,6/7/19 1:30,13.834,0.2269
158,6/7/19 2:30,13.738,0.2269
159,6/7/19 3:30,13.594,0.2269
160,6/7/19 4:30,13.425,0.2266
161,6/7/19 5:30,13.281,0.2262
162,6/7/19 6:30,13.161,0.2262
163,6/7/19 7:30,13.064,0.2262
164,6/7/19 8:30,13.016,0.2257
165,6/7/19 9:30,13.257,0.2254
166,6/7/19 10:30,13.618,0.2249
167,6/7/19 11:30,14.002,0.2249
168,6/7/19 12:30,14.385,0.2245
169,6/7/19 13:30,14.745,0.2237
170,6/7/19 14:30,15.199,0.2232
171,6/7/19 15:30,15.629,0.2224
172,6/7/19 16:30,15.986,0.2219
173,6/7/19 17:30,16.082,0.2216
174,6/7/19 18:30,16.153,0.2211
175,6/7/19 19:30,16.106,0.2208
176,6/7/19 20:30,16.01,0.2198
177,6/7/19 21:30,15.796,0.2198
178,6/7/19 22:30,15.485,0.2198
179,6/7/19 23:30,15.151,0.2198
180,6/8/19 0:30,14.816,0.2198
181,6/8/19 1:30,14.505,0.219
182,6/8/19 2:30,14.218,0.219
183,6/8/19 3:30,13.93,0.2195
184,6/8/19 4:30,13.666,0.219
185,6/8/19 5:30,13.401,0.2185
186,6/8/19 6:30,13.137,0.2182
187,6/8/19 7:30,13.016,0.2182
188,6/8/19 8:30,13.04,0.2182
189,6/8/19 9:30,13.281,0.2177
190,6/8/19 10:30,13.618,0.2174
191,6/8/19 11:30,14.05,0.2169
192,6/8/19 12:30,14.433,0.2164
193,6/8/19 13:30,14.816,0.2161
194,6/8/19 14:30,15.247,0.2156
195,6/8/19 15:30,15.652,0.2153
196,6/8/19 16:30,15.939,0.2143
197,6/8/19 17:30,15.939,0.2139
198,6/8/19 18:30,15.891,0.2134
199,6/8/19 19:30,15.796,0.2131
200,6/8/19 20:30,15.676,0.2131
201,6/8/19 21:30,15.485,0.2122
202,6/8/19 22:30,15.27,0.2122
203,6/8/19 23:30,15.031,0.2117
204,6/9/19 0:30,14.816,0.2122
205,6/9/19 1:30,14.625,0.2117
206,6/9/19 2:30,14.409,0.2112
207,6/9/19 3:30,14.218,0.2117
208,6/9/19 4:30,14.026,0.2117
209,6/9/19 5:30,13.858,0.2112
210,6/9/19 6:30,13.714,0.2104
211,6/9/19 7:30,13.57,0.2104
212,6/9/19 8:30,13.546,0.2104
213,6/9/19 9:30,13.69,0.21
214,6/9/19 10:30,13.81,0.2095
215,6/9/19 11:30,13.978,0.2087
216,6/9/19 12:30,14.29,0.2083
217,6/9/19 13:30,14.529,0.2078
218,6/9/19 14:30,14.553,0.2064
219,6/9/19 15:30,14.673,0.2043
220,6/9/19 16:30,14.768,0.2026
221,6/9/19 17:30,14.792,0.2043
222,6/9/19 18:30,14.84,0.21
223,6/9/19 19:30,14.936,0.2315
224,6/9/19 20:30,15.127,0.289
225,6/9/19 21:30,15.175,0.3026
226,6/9/19 22:30,15.247,0.3069
227,6/9/19 23:30,15.318,0.3022
228,6/10/19 0:30,15.318,0.2987
229,6/10/19 1:30,15.27,0.2919
230,6/10/19 2:30,15.247,0.289
231,6/10/19 3:30,15.199,0.2853
232,6/10/19 4:30,15.151,0.2837
233,6/10/19 5:30,15.008,0.2793
234,6/10/19 6:30,14.888,0.2763
235,6/10/19 7:30,14.745,0.2732
236,6/10/19 8:30,14.553,0.2719
237,6/10/19 9:30,14.266,0.2715
238,6/10/19 10:30,13.978,0.2705
239,6/10/19 11:30,13.714,0.2694
240,6/10/19 12:30,13.497,0.2677
241,6/10/19 13:30,13.281,0.266
242,6/10/19 14:30,13.185,0.2653
243,6/10/19 15:30,13.57,0.2635
244,6/10/19 16:30,13.81,0.2621
245,6/10/19 17:30,13.93,0.2604
246,6/10/19 18:30,13.954,0.2585
247,6/10/19 19:30,13.786,0.2575
248,6/10/19 20:30,13.618,0.256
249,6/10/19 21:30,13.377,0.2546
250,6/10/19 22:30,13.088,0.2534
251,6/10/19 23:30,12.896,0.2524
252,6/11/19 0:30,12.727,0.252
253,6/11/19 1:30,12.534,0.2512
254,6/11/19 2:30,12.364,0.2502
255,6/11/19 3:30,12.219,0.2494
256,6/11/19 4:30,12.001,0.249
257,6/11/19 5:30,11.904,0.2483
258,6/11/19 6:30,11.807,0.2479
259,6/11/19 7:30,11.734,0.2471
260,6/11/19 8:30,11.807,0.2468
261,6/11/19 9:30,12.025,0.246
262,6/11/19 10:30,12.34,0.2456
263,6/11/19 11:30,12.703,0.2449
264,6/11/19 12:30,13.088,0.2437
265,6/11/19 13:30,13.522,0.2434
266,6/11/19 14:30,13.93,0.2421
267,6/11/19 15:30,14.577,0.2414
268,6/11/19 16:30,15.031,0.2406
269,6/11/19 17:30,15.079,0.2403
270,6/11/19 18:30,15.127,0.2394
271,6/11/19 19:30,14.984,0.2387
272,6/11/19 20:30,14.84,0.2383
273,6/11/19 21:30,14.673,0.2379
274,6/11/19 22:30,14.481,0.2379
275,6/11/19 23:30,14.29,0.2371
276,6/12/19 0:30,14.098,0.2367
277,6/12/19 1:30,13.906,0.2367
278,6/12/19 2:30,13.786,0.2367
279,6/12/19 3:30,13.618,0.2363
280,6/12/19 4:30,13.473,0.2358
281,6/12/19 5:30,13.329,0.2355
282,6/12/19 6:30,13.233,0.2355
283,6/12/19 7:30,13.137,0.2355
284,6/12/19 8:30,13.112,0.2351
285,6/12/19 9:30,13.185,0.2351
286,6/12/19 10:30,13.305,0.2347
287,6/12/19 11:30,13.353,0.2347
288,6/12/19 12:30,13.353,0.2344
289,6/12/19 13:30,13.329,0.2339
290,6/12/19 14:30,13.329,0.2339
291,6/12/19 15:30,13.425,0.2339
292,6/12/19 16:30,13.522,0.2339
293,6/12/19 17:30,13.353,0.2621
294,6/12/19 18:30,13.329,0.2632
295,6/12/19 19:30,13.233,0.266
296,6/12/19 20:30,13.088,0.2726
297,6/12/19 21:30,12.968,0.2698
298,6/12/19 22:30,12.847,0.2677
299,6/12/19 23:30,12.751,0.2691
300,6/13/19 0:30,12.606,0.2773
301,6/13/19 1:30,12.534,0.2749
302,6/13/19 2:30,12.461,0.2729
303,6/13/19 3:30,12.389,0.2705
304,6/13/19 4:30,12.316,0.2691
305,6/13/19 5:30,12.219,0.2712
306,6/13/19 6:30,12.074,0.2708
307,6/13/19 7:30,11.904,0.2712
308,6/13/19 8:30,11.71,0.2726
309,6/13/19 9:30,11.516,0.2783
310,6/13/19 10:30,11.443,0.2783
311,6/13/19 11:30,11.37,0.277
312,6/13/19 12:30,11.321,0.2739
313,6/13/19 13:30,11.273,0.2722
314,6/13/19 14:30,11.273,0.2698
315,6/13/19 15:30,11.394,0.268
316,6/13/19 16:30,11.637,0.2664
317,6/13/19 17:30,11.783,0.265
318,6/13/19 18:30,11.807,0.2632
319,6/13/19 19:30,11.71,0.2618
320,6/13/19 20:30,11.565,0.26
321,6/13/19 21:30,11.443,0.2592
322,6/13/19 22:30,11.273,0.2579
323,6/13/19 23:30,11.102,0.2571
324,6/14/19 0:30,10.956,0.256
325,6/14/19 1:30,10.81,0.2553
326,6/14/19 2:30,10.663,0.2546
327,6/14/19 3:30,10.516,0.2538
328,6/14/19 4:30,10.418,0.2532
329,6/14/19 5:30,10.345,0.2524
330,6/14/19 6:30,10.222,0.252
331,6/14/19 7:30,10.124,0.2516
332,6/14/19 8:30,10.247,0.2509
333,6/14/19 9:30,10.565,0.2502
334,6/14/19 10:30,11.005,0.2494
335,6/14/19 11:30,11.273,0.2487
336,6/14/19 12:30,11.394,0.2483
337,6/14/19 13:30,11.419,0.2475
338,6/14/19 14:30,11.37,0.2512
339,6/14/19 15:30,11.297,0.2639
340,6/14/19 16:30,11.248,0.278
341,6/14/19 17:30,11.273,0.279
342,6/14/19 18:30,11.297,0.2844
343,6/14/19 19:30,11.297,0.284
344,6/14/19 20:30,11.321,0.2824
345,6/14/19 21:30,11.37,0.279
346,6/14/19 22:30,11.394,0.2759
347,6/14/19 23:30,11.394,0.2729
348,6/15/19 0:30,11.443,0.2708
349,6/15/19 1:30,11.467,0.2687
350,6/15/19 2:30,11.492,0.2708
351,6/15/19 3:30,11.516,0.2691
352,6/15/19 4:30,11.565,0.2673
353,6/15/19 5:30,11.613,0.266
354,6/15/19 6:30,11.613,0.2653
355,6/15/19 7:30,11.637,0.267
356,6/15/19 8:30,11.662,0.2666
357,6/15/19 9:30,11.783,0.265
358,6/15/19 10:30,11.904,0.2632
359,6/15/19 11:30,11.953,0.2621
360,6/15/19 12:30,11.953,0.2611
361,6/15/19 13:30,11.832,0.26
362,6/15/19 14:30,11.807,0.2592
363,6/15/19 15:30,11.953,0.2585
364,6/15/19 16:30,12.219,0.2571
365,6/15/19 17:30,12.485,0.2564
366,6/15/19 18:30,12.582,0.2553
367,6/15/19 19:30,12.678,0.2546
368,6/15/19 20:30,12.703,0.2538
369,6/15/19 21:30,12.582,0.2528
370,6/15/19 22:30,12.413,0.2524
371,6/15/19 23:30,12.268,0.2516
372,6/16/19 0:30,12.147,0.2512
373,6/16/19 1:30,12.025,0.2505
374,6/16/19 2:30,11.904,0.2498
375,6/16/19 3:30,11.856,0.249
376,6/16/19 4:30,11.807,0.249
377,6/16/19 5:30,11.71,0.2483
378,6/16/19 6:30,11.516,0.2479
379,6/16/19 7:30,11.37,0.2471
380,6/16/19 8:30,11.273,0.2468
381,6/16/19 9:30,11.2,0.2468
382,6/16/19 10:30,11.273,0.246
383,6/16/19 11:30,11.565,0.2456
384,6/16/19 12:30,11.783,0.2449
385,6/16/19 13:30,11.856,0.2445
386,6/16/19 14:30,11.904,0.2456
387,6/16/19 15:30,12.001,0.2475
388,6/16/19 16:30,12.05,0.2479
389,6/16/19 17:30,12.05,0.249
390,6/16/19 18:30,12.001,0.2494
391,6/16/19 19:30,12.05,0.2494
392,6/16/19 20:30,12.05,0.2487
393,6/16/19 21:30,12.001,0.2483
394,6/16/19 22:30,11.856,0.2479
395,6/16/19 23:30,11.734,0.2471
396,6/17/19 0:30,11.637,0.2471
397,6/17/19 1:30,11.565,0.2464
398,6/17/19 2:30,11.492,0.246
399,6/17/19 3:30,11.419,0.2452
400,6/17/19 4:30,11.273,0.2449
401,6/17/19 5:30,11.175,0.2449
402,6/17/19 6:30,11.127,0.2445
403,6/17/19 7:30,11.151,0.2441
404,6/17/19 8:30,11.297,0.2437
405,6/17/19 9:30,11.492,0.2434
406,6/17/19 10:30,11.856,0.243
407,6/17/19 11:30,12.243,0.2421
408,6/17/19 12:30,12.63,0.2418
409,6/17/19 13:30,13.04,0.241
410,6/17/19 14:30,13.473,0.2406
411,6/17/19 15:30,14.098,0.2399
412,6/17/19 16:30,14.505,0.2394
413,6/17/19 17:30,14.625,0.2387
414,6/17/19 18:30,14.673,0.2379
415,6/17/19 19:30,14.625,0.2374
416,6/17/19 20:30,14.481,0.2374
417,6/17/19 21:30,14.337,0.2367
418,6/17/19 22:30,14.098,0.2367
419,6/17/19 23:30,13.81,0.2367
420,6/18/19 0:30,13.57,0.2363
421,6/18/19 1:30,13.401,0.2358
422,6/18/19 2:30,13.233,0.2358
423,6/18/19 3:30,13.04,0.2358
424,6/18/19 4:30,12.896,0.2355
425,6/18/19 5:30,12.871,0.2351
426,6/18/19 6:30,12.871,0.2351
427,6/18/19 7:30,12.896,0.2347
428,6/18/19 8:30,12.992,0.2347
429,6/18/19 9:30,13.233,0.2347
430,6/18/19 10:30,13.401,0.2344
431,6/18/19 11:30,13.618,0.2339
432,6/18/19 12:30,13.978,0.233
433,6/18/19 13:30,14.361,0.2327
434,6/18/19 14:30,14.721,0.2323
435,6/18/19 15:30,15.055,0.2318
436,6/18/19 16:30,15.247,0.2315
437,6/18/19 17:30,15.414,0.2311
438,6/18/19 18:30,15.509,0.2306
439,6/18/19 19:30,15.509,0.2303
440,6/18/19 20:30,15.438,0.2303
441,6/18/19 21:30,15.318,0.2299
442,6/18/19 22:30,15.151,0.2294
443,6/18/19 23:30,15.008,0.2294
444,6/19/19 0:30,14.864,0.2294
445,6/19/19 1:30,14.721,0.2294
446,6/19/19 2:30,14.601,0.2294
447,6/19/19 3:30,14.505,0.2291
448,6/19/19 4:30,14.361,0.2291
449,6/19/19 5:30,14.218,0.2286
450,6/19/19 6:30,14.146,0.2286
451,6/19/19 7:30,14.074,0.2282
452,6/19/19 8:30,14.002,0.2274
453,6/19/19 9:30,13.954,0.2344
454,6/19/19 10:30,13.954,0.239
455,6/19/19 11:30,14.002,0.2394
456,6/19/19 12:30,14.074,0.2399
457,6/19/19 13:30,14.146,0.2399
458,6/19/19 14:30,14.242,0.2399
459,6/19/19 15:30,14.625,0.2394
460,6/19/19 16:30,14.984,0.2394
461,6/19/19 17:30,15.151,0.239
462,6/19/19 18:30,15.175,0.2379
463,6/19/19 19:30,15.151,0.2374
464,6/19/19 20:30,15.031,0.2371
465,6/19/19 21:30,14.864,0.2367
466,6/19/19 22:30,14.673,0.2363
467,6/19/19 23:30,14.457,0.2358
468,6/20/19 0:30,14.218,0.2358
469,6/20/19 1:30,14.05,0.2358
470,6/20/19 2:30,13.93,0.2355
471,6/20/19 3:30,13.834,0.2351
472,6/20/19 4:30,13.738,0.2347
473,6/20/19 5:30,13.666,0.2347
474,6/20/19 6:30,13.57,0.2347
475,6/20/19 7:30,13.497,0.2344
476,6/20/19 8:30,13.425,0.2339
477,6/20/19 9:30,13.449,0.2339
478,6/20/19 10:30,13.57,0.2339
479,6/20/19 11:30,13.762,0.2335
480,6/20/19 12:30,13.978,0.2335
481,6/20/19 13:30,14.194,0.2327
482,6/20/19 14:30,14.457,0.2323
483,6/20/19 15:30,14.816,0.2318
484,6/20/19 16:30,15.008,0.2315
485,6/20/19 17:30,15.055,0.2311
486,6/20/19 18:30,15.079,0.2306
487,6/20/19 19:30,14.984,0.2299
488,6/20/19 20:30,14.84,0.2299
489,6/20/19 21:30,14.649,0.2299
490,6/20/19 22:30,14.385,0.2294
491,6/20/19 23:30,14.098,0.2291
492,6/21/19 0:30,13.858,0.2291
493,6/21/19 1:30,13.594,0.2291
494,6/21/19 2:30,13.353,0.2291
495,6/21/19 3:30,13.137,0.2286
496,6/21/19 4:30,12.92,0.2282
497,6/21/19 5:30,12.751,0.2282
498,6/21/19 6:30,12.582,0.2282
499,6/21/19 7:30,12.485,0.2282
500,6/21/19 8:30,12.509,0.2277
501,6/21/19 9:30,12.678,0.2274
502,6/21/19 10:30,13.016,0.2274
503,6/21/19 11:30,13.377,0.2269
504,6/21/19 12:30,13.762,0.2266
505,6/21/19 13:30,14.098,0.2262
506,6/21/19 14:30,14.409,0.2257
507,6/21/19 15:30,14.864,0.2254
508,6/21/19 16:30,15.103,0.2249
509,6/21/19 17:30,15.079,0.2245
510,6/21/19 18:30,15.031,0.2241
511,6/21/19 19:30,14.888,0.2237
512,6/21/19 20:30,14.745,0.2232
513,6/21/19 21:30,14.505,0.2232
514,6/21/19 22:30,14.17,0.2237
515,6/21/19 23:30,13.954,0.2232
516,6/22/19 0:30,13.786,0.2229
517,6/22/19 1:30,13.618,0.2224
518,6/22/19 2:30,13.425,0.2229
519,6/22/19 3:30,13.209,0.2224
520,6/22/19 4:30,13.016,0.2224
521,6/22/19 5:30,12.823,0.2219
522,6/22/19 6:30,12.703,0.2219
523,6/22/19 7:30,12.582,0.2219
524,6/22/19 8:30,12.63,0.2219
525,6/22/19 9:30,12.871,0.2216
526,6/22/19 10:30,13.233,0.2211
527,6/22/19 11:30,13.594,0.2203
528,6/22/19 12:30,13.954,0.2198
529,6/22/19 13:30,14.29,0.2195
530,6/22/19 14:30,14.625,0.2195
531,6/22/19 15:30,15.127,0.2185
532,6/22/19 16:30,15.438,0.2182
533,6/22/19 17:30,15.485,0.2177
534,6/22/19 18:30,15.557,0.2174
535,6/22/19 19:30,15.509,0.2174
536,6/22/19 20:30,15.39,0.2169
537,6/22/19 21:30,15.223,0.2164
538,6/22/19 22:30,14.96,0.2164
539,6/22/19 23:30,14.649,0.2169
540,6/23/19 0:30,14.337,0.2169
541,6/23/19 1:30,14.074,0.2164
542,6/23/19 2:30,13.858,0.2161
543,6/23/19 3:30,13.618,0.2164
544,6/23/19 4:30,13.377,0.2164
545,6/23/19 5:30,13.161,0.2161
546,6/23/19 6:30,12.968,0.2161
547,6/23/19 7:30,12.896,0.2161
548,6/23/19 8:30,12.968,0.2156
549,6/23/19 9:30,13.161,0.2156
550,6/23/19 10:30,13.57,0.2153
551,6/23/19 11:30,14.026,0.2143
552,6/23/19 12:30,14.409,0.2139
553,6/23/19 13:30,14.792,0.2131
554,6/23/19 14:30,15.127,0.2126
555,6/23/19 15:30,15.605,0.2126
556,6/23/19 16:30,15.963,0.2117
557,6/23/19 17:30,16.058,0.2104
558,6/23/19 18:30,16.082,0.21
559,6/23/19 19:30,15.867,0.2087
560,6/23/19 20:30,15.7,0.2092
561,6/23/19 21:30,15.605,0.2092
562,6/23/19 22:30,15.533,0.2087
563,6/23/19 23:30,15.438,0.2083
564,6/24/19 0:30,15.27,0.2087
565,6/24/19 1:30,15.103,0.2092
566,6/24/19 2:30,14.936,0.2092
567,6/24/19 3:30,14.745,0.2083
568,6/24/19 4:30,14.625,0.2064
569,6/24/19 5:30,14.529,0.2035
570,6/24/19 6:30,14.505,0.2035
571,6/24/19 7:30,14.577,0.2026
572,6/24/19 8:30,14.697,0.2083
573,6/24/19 9:30,14.84,0.2148
574,6/24/19 10:30,14.984,0.2177
575,6/24/19 11:30,15.199,0.219
576,6/24/19 12:30,15.39,0.2198
577,6/24/19 13:30,15.581,0.2203
578,6/24/19 14:30,15.724,0.2208
579,6/24/19 15:30,15.867,0.2208
580,6/24/19 16:30,16.01,0.2216
581,6/24/19 17:30,15.986,0.2318
582,6/24/19 18:30,15.772,0.2494
583,6/24/19 19:30,15.652,0.2505
584,6/24/19 20:30,15.581,0.2498
585,6/24/19 21:30,15.509,0.2494
586,6/24/19 22:30,15.461,0.2534
587,6/24/19 23:30,15.342,0.2532
588,6/25/19 0:30,15.223,0.252
589,6/25/19 1:30,15.031,0.2512
590,6/25/19 2:30,14.888,0.2557
591,6/25/19 3:30,14.721,0.2673
592,6/25/19 4:30,14.625,0.2657
593,6/25/19 5:30,14.553,0.2639
594,6/25/19 6:30,14.505,0.2628
595,6/25/19 7:30,14.481,0.2618
596,6/25/19 8:30,14.457,0.26
597,6/25/19 9:30,14.505,0.2585
598,6/25/19 10:30,14.673,0.2575
599,6/25/19 11:30,14.96,0.2564
600,6/25/19 12:30,15.318,0.2557
601,6/25/19 13:30,15.7,0.2542
602,6/25/19 14:30,16.082,0.2528
603,6/25/19 15:30,16.725,0.2512
604,6/25/19 16:30,17.034,0.2498
605,6/25/19 17:30,16.915,0.249
606,6/25/19 18:30,16.749,0.2479
607,6/25/19 19:30,16.677,0.2468
608,6/25/19 20:30,16.558,0.246
609,6/25/19 21:30,16.415,0.2452
610,6/25/19 22:30,16.249,0.2449
611,6/25/19 23:30,16.106,0.2445
612,6/26/19 0:30,15.963,0.2437
613,6/26/19 1:30,15.867,0.2434
614,6/26/19 2:30,15.772,0.243
615,6/26/19 3:30,15.676,0.243
616,6/26/19 4:30,15.533,0.2425
617,6/26/19 5:30,15.39,0.2418
618,6/26/19 6:30,15.223,0.2418
619,6/26/19 7:30,15.127,0.2414
620,6/26/19 8:30,15.175,0.241
621,6/26/19 9:30,15.342,0.2406
622,6/26/19 10:30,15.605,0.2399
623,6/26/19 11:30,15.939,0.239
624,6/26/19 12:30,16.296,0.2387
625,6/26/19 13:30,16.63,0.2379
626,6/26/19 14:30,16.939,0.2374
627,6/26/19 15:30,17.486,0.2363
628,6/26/19 16:30,17.701,0.2355
629,6/26/19 17:30,17.677,0.2347
630,6/26/19 18:30,17.629,0.2344
631,6/26/19 19:30,17.486,0.2339
632,6/26/19 20:30,17.344,0.233
633,6/26/19 21:30,17.177,0.2327
634,6/26/19 22:30,16.963,0.2323
635,6/26/19 23:30,16.725,0.2323
636,6/27/19 0:30,16.534,0.2323
637,6/27/19 1:30,16.344,0.2318
638,6/27/19 2:30,16.201,0.2315
639,6/27/19 3:30,16.153,0.2315
640,6/27/19 4:30,16.106,0.2318
641,6/27/19 5:30,15.986,0.2315
642,6/27/19 6:30,15.796,0.2311
643,6/27/19 7:30,15.557,0.2306
644,6/27/19 8:30,15.557,0.2306
645,6/27/19 9:30,15.843,0.2303
646,6/27/19 10:30,16.225,0.2299
647,6/27/19 11:30,16.63,0.2291
648,6/27/19 12:30,16.987,0.2286
649,6/27/19 13:30,17.463,0.2277
650,6/27/19 14:30,17.843,0.2274
651,6/27/19 15:30,18.438,0.2266
652,6/27/19 16:30,18.723,0.2257
653,6/27/19 17:30,18.747,0.2254
654,6/27/19 18:30,18.794,0.2245
655,6/27/19 19:30,18.699,0.2245
656,6/27/19 20:30,18.557,0.2241
657,6/27/19 21:30,18.39,0.2237
658,6/27/19 22:30,18.176,0.2232
659,6/27/19 23:30,17.938,0.2232
660,6/28/19 0:30,17.772,0.2232
661,6/28/19 1:30,17.629,0.2229
662,6/28/19 2:30,17.51,0.2224
663,6/28/19 3:30,17.415,0.2224
664,6/28/19 4:30,17.344,0.2224
665,6/28/19 5:30,17.249,0.2224
666,6/28/19 6:30,17.153,0.2219
667,6/28/19 7:30,17.058,0.2177
668,6/28/19 8:30,17.011,0.2582
669,6/28/19 9:30,17.011,0.2585
670,6/28/19 10:30,17.011,0.2571
671,6/28/19 11:30,17.082,0.2557
672,6/28/19 12:30,17.225,0.2538
673,6/28/19 13:30,17.296,0.2528
674,6/28/19 14:30,17.415,0.2516
675,6/28/19 15:30,17.653,0.2505
676,6/28/19 16:30,17.843,0.2494
677,6/28/19 17:30,18.057,0.2479
678,6/28/19 18:30,18.176,0.2468
679,6/28/19 19:30,18.176,0.2456
680,6/28/19 20:30,18.176,0.2452
681,6/28/19 21:30,18.081,0.2449
682,6/28/19 22:30,17.938,0.2437
683,6/28/19 23:30,17.796,0.2434
684,6/29/19 0:30,17.605,0.243
685,6/29/19 1:30,17.439,0.243
686,6/29/19 2:30,17.296,0.2425
687,6/29/19 3:30,17.153,0.2418
688,6/29/19 4:30,17.011,0.2414
689,6/29/19 5:30,16.892,0.241
690,6/29/19 6:30,16.773,0.241
691,6/29/19 7:30,16.701,0.2406
692,6/29/19 8:30,16.749,0.2403
693,6/29/19 9:30,16.892,0.2399
694,6/29/19 10:30,17.177,0.2394
695,6/29/19 11:30,17.486,0.239
696,6/29/19 12:30,17.796,0.2383
697,6/29/19 13:30,18.129,0.2371
698,6/29/19 14:30,18.414,0.2358
699,6/29/19 15:30,19.008,0.2355
700,6/29/19 16:30,19.199,0.2347
701,6/29/19 17:30,19.222,0.2339
702,6/29/19 18:30,19.246,0.233
703,6/29/19 19:30,19.127,0.2323
704,6/29/19 20:30,18.961,0.2318
705,6/29/19 21:30,18.747,0.2315
706,6/29/19 22:30,18.485,0.2315
707,6/29/19 23:30,18.271,0.2306
708,6/30/19 0:30,18.057,0.2306
709,6/30/19 1:30,17.867,0.2303
710,6/30/19 2:30,17.677,0.2303
711,6/30/19 3:30,17.51,0.2303
712,6/30/19 4:30,17.32,0.2299
713,6/30/19 5:30,17.106,0.2294
714,6/30/19 6:30,16.892,0.2294
715,6/30/19 7:30,16.749,0.2294
716,6/30/19 8:30,16.701,0.2294
717,6/30/19 9:30,16.773,0.2286
718,6/30/19 10:30,16.939,0.2282
719,6/30/19 11:30,17.153,0.2282
720,6/30/19 12:30,17.391,0.2277
721,6/30/19 13:30,17.605,0.2269
722,6/30/19 14:30,17.819,0.2266
723,6/30/19 15:30,18.176,0.2257
724,6/30/19 16:30,18.319,0.2254
725,6/30/19 17:30,18.438,0.2249
726,6/30/19 18:30,18.509,0.2241
727,6/30/19 19:30,18.461,0.2237
728,6/30/19 20:30,18.39,0.2232
729,6/30/19 21:30,18.271,0.2229
730,6/30/19 22:30,18.129,0.2229
731,6/30/19 23:30,17.986,0.2229
732,7/1/19 0:30,17.819,0.2224
733,7/1/19 1:30,17.582,0.2224
734,7/1/19 2:30,17.368,0.2219
735,7/1/19 3:30,17.177,0.2224
736,7/1/19 4:30,17.034,0.2219
737,7/1/19 5:30,16.892,0.2216
738,7/1/19 6:30,16.749,0.2216
739,7/1/19 7:30,16.654,0.2216
740,7/1/19 8:30,16.654,0.2216
741,7/1/19 9:30,16.915,0.2211
742,7/1/19 10:30,17.272,0.2208
743,7/1/19 11:30,17.653,0.2203
744,7/1/19 12:30,18.01,0.2198
745,7/1/19 13:30,18.343,0.2195
746,7/1/19 14:30,18.557,0.219
747,7/1/19 15:30,18.794,0.2182
748,7/1/19 16:30,18.889,0.2177